QPF
0.00 0.00 0.00 0.00 0.00 0.00 0.00 0.00 0.00 0.00 0.00 0.00 0.00 0.00 0.00 0.00 0.00 0.00 0.00 0.00 0.00 0.00 0.00 0.00 0.00 0.00 0.00 0.00 0.00 0.00 0.00 0.00 0.00 0.00 0.00 0.01 0.00 0.00 0.04 0.09 0.20 0.27 0.21 0.19
0.00 0.00 0.00 0.00 0.00 0.00 0.00 0.00 0.00 0.00 0.00 0.00 0.00 0.00 0.00 0.00 0.00 0.00 0.00 0.00 0.00 0.00 0.00 0.00 0.00 0.00 0.00 0.00 0.00 0.00 0.00 0.00 0.00 0.00 0.00 0.00 0.01 0.02 0.13 0.24 0.31 0.27 0.30 0.36
0.00 0.00 0.00 0.00 0.00 0.00 0.00 0.00 0.00 0.00 0.00 0.00 0.00 0.00 0.00 0.00 0.00 0.00 0.00 0.00 0.00 0.00 0.00 0.00 0.00 0.00 0.00 0.00 0.00 0.00 0.00 0.00 0.00 0.00 0.00 0.00 0.00 0.03 0.07 0.05 0.02 0.07 0.15 0.09
0.00 0.00 0.00 0.00 0.00 0.00 0.00 0.00 0.00 0.00 0.00 0.00 0.00 0.00 0.00 0.00 0.00 0.00 0.00 0.00 0.00 0.00 0.00 0.00 0.00 0.00 0.00 0.00 0.00 0.00 0.00 0.00 0.00 0.00 0.00 0.00 0.00 0.01 0.00 0.02 0.00 0.00 0.03 0.06
0.00 0.00 0.00 0.00 0.00 0.00 0.00 0.00 0.00 0.00 0.00 0.00 0.00 0.00 0.00 0.00 0.00 0.00 0.00 0.00 0.00 0.00 0.00 0.00 0.00 0.00 0.00 0.00 0.00 0.00 0.00 0.00 0.00 0.00 0.00 0.00 0.00 0.00 0.02 0.04 0.00 0.00 0.00 0.01
0.00 0.00 0.00 0.00 0.00 0.00 0.00 0.00 0.00 0.00 0.00 0.00 0.00 0.00 0.00 0.00 0.00 0.00 0.00 0.00 0.00 0.00 0.00 0.00 0.00 0.00 0.00 0.00 0.00 0.00 0.00 0.00 0.00 0.00 0.00 0.00 0.00 0.00 0.02 0.00 0.00 0.00 0.00 0.00
0.00 0.00 0.00 0.00 0.00 0.00 0.00 0.00 0.00 0.00 0.00 0.00 0.00 0.00 0.00 0.00 0.00 0.00 0.00 0.00 0.00 0.00 0.00 0.00 0.00 0.00 0.00 0.00 0.00 0.00 0.00 0.00 0.00 0.00 0.00 0.00 0.00 0.01 0.00 0.00 0.00 0.00 0.00 0.00
0.00 0.00 0.00 0.00 0.00 0.00 0.00 0.00 0.00 0.00 0.00 0.00 0.00 0.00 0.00 0.00 0.00 0.00 0.00 0.00 0.00 0.00 0.00 0.00 0.00 0.00 0.00 0.00 0.00 0.00 0.00 0.00 0.00 0.00 0.00 0.00 0.00 0.00 0.00 0.01 0.00 0.00 0.00 0.00
0.00 0.00 0.00 0.00 0.00 0.00 0.00 0.00 0.00 0.00 0.00 0.00 0.00 0.00 0.00 0.00 0.00 0.00 0.00 0.00 0.00 0.00 0.00 0.00 0.00 0.00 0.00 0.00 0.00 0.00 0.00 0.00 0.00 0.00 0.00 0.00 0.03 0.04 0.05 0.06 0.03 0.14 0.11 0.02
0.00 0.00 0.00 0.00 0.00 0.00 0.00 0.00 0.00 0.00 0.00 0.00 0.00 0.00 0.00 0.00 0.00 0.00 0.00 0.00 0.00 0.00 0.00 0.00 0.00 0.00 0.00 0.00 0.00 0.00 0.00 0.00 0.00 0.00 0.01 0.08 0.06 0.11 0.13 0.10 0.15 0.36 0.07 0.03
0.00 0.00 0.00 0.00 0.00 0.00 0.00 0.00 0.00 0.00 0.00 0.00 0.00 0.00 0.00 0.00 0.00 0.00 0.00 0.00 0.00 0.00 0.00 0.00 0.00 0.01 0.00 0.00 0.00 0.00 0.07 0.14 0.07 0.10 0.32 0.30 0.25 0.30 0.26 0.27 0.34 0.19 0.06 0.02
0.00 0.00 0.00 0.00 0.00 0.00 0.00 0.00 0.00 0.00 0.00 0.00 0.00 0.00 0.00 0.00 0.00 0.00 0.00 0.00 0.00 0.00 0.00 0.00 0.00 0.03 0.02 0.00 0.01 0.03 0.11 0.23 0.25 0.37 0.60 0.35 0.30 0.48 0.35 0.31 0.18 0.07 0.02 0.00
0.00 0.00 0.00 0.00 0.00 0.00 0.00 0.00 0.00 0.00 0.00 0.00 0.00 0.00 0.00 0.00 0.00 0.00 0.00 0.00 0.00 0.00 0.00 0.00 0.00 0.01 0.04 0.03 0.04 0.02 0.05 0.17 0.42 0.39 0.19 0.17 0.18 0.21 0.20 0.13 0.07 0.02 0.00 0.00
0.00 0.00 0.00 0.00 0.00 0.00 0.00 0.00 0.00 0.00 0.00 0.00 0.00 0.00 0.00 0.00 0.00 0.00 0.00 0.00 0.00 0.00 0.00 0.00 0.02 0.05 0.06 0.05 0.12 0.09 0.17 0.22 0.30 0.28 0.22 0.17 0.13 0.08 0.04 0.02 0.01 0.00 0.00 0.00
0.00 0.00 0.00 0.00 0.00 0.00 0.00 0.00 0.00 0.00 0.00 0.00 0.00 0.00 0.00 0.00 0.00 0.00 0.00 0.00 0.00 0.00 0.00 0.00 0.01 0.04 0.04 0.12 0.21 0.13 0.18 0.17 0.13 0.11 0.06 0.04 0.03 0.01 0.00 0.00 0.00 0.00 0.00 0.00
0.00 0.00 0.00 0.00 0.00 0.00 0.00 0.00 0.00 0.00 0.00 0.00 0.00 0.00 0.00 0.00 0.00 0.00 0.00 0.00 0.00 0.00 0.00 0.00 0.02 0.03 0.01 0.00 0.01 0.02 0.02 0.05 0.05 0.02 0.01 0.00 0.00 0.00 0.00 0.00 0.00 0.00 0.00 0.00
0.00 0.00 0.00 0.00 0.00 0.00 0.00 0.00 0.00 0.00 0.00 0.00 0.00 0.00 0.00 0.00 0.00 0.00 0.00 0.00 0.00 0.00 0.00 0.00 0.00 0.00 0.01 0.01 0.00 0.00 0.00 0.00 0.00 0.00 0.00 0.00 0.00 0.00 0.00 0.00 0.00 0.00 0.00 0.00
0.00 0.00 0.00 0.00 0.00 0.00 0.00 0.00 0.00 0.00 0.00 0.00 0.00 0.00 0.00 0.00 0.00 0.00 0.00 0.00 0.00 0.00 0.00 0.00 0.00 0.00 0.00 0.00 0.00 0.00 0.00 0.00 0.00 0.00 0.00 0.00 0.00 0.00 0.00 0.00 0.00 0.00 0.00 0.00
0.00 0.00 0.00 0.00 0.00 0.00 0.00 0.00 0.00 0.00 0.00 0.00 0.00 0.00 0.00 0.00 0.00 0.00 0.00 0.00 0.00 0.00 0.00 0.00 0.00 0.00 0.00 0.00 0.00 0.00 0.00 0.00 0.00 0.00 0.00 0.00 0.00 0.00 0.00 0.00 0.00 0.00 0.00 0.00
0.00 0.00 0.00 0.00 0.00 0.00 0.00 0.00 0.00 0.00 0.00 0.00 0.00 0.00 0.00 0.00 0.00 0.00 0.00 0.00 0.00 0.00 0.00 0.00 0.00 0.00 0.00 0.00 0.00 0.00 0.00 0.00 0.00 0.00 0.00 0.00 0.00 0.00 0.00 0.00 0.00 0.00 0.00 0.00
0.00 0.00 0.00 0.00 0.00 0.00 0.00 0.00 0.00 0.00 0.00 0.00 0.00 0.00 0.00 0.00 0.00 0.00 0.00 0.00 0.00 0.00 0.00 0.00 0.00 0.00 0.00 0.00 0.00 0.00 0.00 0.00 0.00 0.00 0.00 0.00 0.00 0.00 0.00 0.00 0.00 0.00 0.00 0.00
0.00 0.00 0.00 0.00 0.00 0.00 0.00 0.00 0.00 0.00 0.00 0.00 0.00 0.00 0.00 0.00 0.00 0.00 0.00 0.00 0.00 0.00 0.00 0.00 0.00 0.00 0.00 0.00 0.00 0.00 0.00 0.00 0.00 0.00 0.00 0.00 0.00 0.00 0.00 0.00 0.00 0.00 0.01 0.01
0.00 0.00 0.00 0.00 0.00 0.00 0.00 0.00 0.00 0.00 0.00 0.00 0.00 0.00 0.00 0.00 0.00 0.00 0.00 0.00 0.00 0.00 0.00 0.00 0.00 0.00 0.00 0.00 0.00 0.00 0.00 0.00 0.00 0.00 0.00 0.00 0.00 0.00 0.00 0.00 0.00 0.01 0.00 0.01
0.00 0.00 0.00 0.00 0.00 0.00 0.00 0.00 0.00 0.00 0.00 0.00 0.00 0.00 0.00 0.00 0.00 0.00 0.00 0.00 0.00 0.00 0.00 0.00 0.00 0.00 0.00 0.00 0.00 0.00 0.00 0.00 0.00 0.00 0.00 0.00 0.00 0.00 0.00 0.00 0.00 0.00 0.00 0.00
0.00 0.00 0.00 0.00 0.00 0.00 0.00 0.00 0.00 0.00 0.00 0.00 0.00 0.00 0.00 0.00 0.00 0.00 0.00 0.00 0.00 0.00 0.00 0.00 0.00 0.00 0.00 0.00 0.00 0.00 0.00 0.00 0.00 0.00 0.00 0.00 0.00 0.00 0.00 0.00 0.00 0.01 0.01 0.00
0.00 0.00 0.00 0.00 0.00 0.00 0.00 0.00 0.00 0.00 0.00 0.00 0.00 0.00 0.00 0.00 0.00 0.00 0.00 0.00 0.00 0.00 0.00 0.00 0.00 0.00 0.00 0.00 0.00 0.00 0.00 0.00 0.00 0.00 0.00 0.00 0.00 0.00 0.00 0.00 0.00 0.00 0.01 0.01
MSLP
1004.03 1004.44 1003.95 1003.18 1002.60 1002.04 1001.77 1001.23 1001.33 1001.77 1001.99 1003.20 1004.37 1005.53 1006.25 1006.88 1007.59 1008.52 1009.39 1010.03 1010.74 1011.36 1011.88 1012.40 1012.85 1013.41 1013.90 1014.66 1015.14 1015.39 1015.77 1016.11 1016.40 1016.55 1016.71 1016.85 1017.03 1017.14 1016.88 1017.58 1018.38 1018.78 1019.85 1018.48
1004.35 1003.95 1002.82 1002.42 1001.89 1001.49 1000.90 1000.82 1000.85 1001.44 1001.56 1002.86 1004.28 1005.02 1005.54 1006.11 1006.62 1007.07 1008.35 1009.32 1009.87 1010.67 1011.28 1011.81 1012.34 1012.82 1013.34 1013.88 1014.40 1014.84 1015.21 1015.61 1015.99 1016.20 1016.35 1016.45 1016.64 1017.03 1017.34 1017.00 1018.02 1018.37 1019.02 1018.60
1004.00 1002.55 1001.96 1001.70 1001.20 1000.62 1000.45 1000.63 1000.80 1001.08 1001.57 1002.37 1004.00 1005.20 1005.39 1005.53 1005.91 1006.53 1007.16 1007.90 1008.76 1009.32 1010.36 1011.10 1011.65 1012.18 1012.73 1013.36 1013.89 1014.40 1014.84 1015.18 1015.50 1015.71 1015.99 1016.25 1016.48 1016.72 1017.22 1016.89 1017.88 1017.82 1017.37 1016.45
1003.27 1002.10 1001.79 1000.79 1000.33 1000.29 1000.38 1000.09 1000.40 1001.09 1002.23 1002.81 1003.37 1005.67 1005.49 1004.89 1005.30 1005.68 1006.32 1006.96 1007.61 1008.43 1009.31 1010.10 1010.79 1011.53 1012.18 1012.76 1013.32 1013.76 1014.21 1014.68 1015.21 1015.67 1016.06 1016.36 1016.43 1016.89 1016.79 1016.63 1016.35 1017.60 1016.75 1016.47
1002.02 1001.22 1000.94 1000.45 1000.00 1000.02 1000.22 1000.32 1000.68 1001.29 1002.65 1003.37 1003.71 1004.68 1004.52 1004.80 1005.13 1005.18 1005.41 1005.86 1006.35 1007.08 1008.01 1008.99 1009.63 1010.44 1011.13 1011.94 1012.65 1013.12 1013.75 1014.47 1014.95 1015.34 1015.40 1015.65 1015.92 1015.88 1016.08 1016.51 1016.64 1016.72 1017.54 1017.09
1001.49 1000.27 999.98 999.52 999.54 999.91 1000.18 1000.84 1001.54 1002.32 1003.42 1004.52 1003.83 1004.21 1004.36 1004.22 1003.62 1003.94 1004.31 1004.62 1004.98 1005.97 1006.92 1007.82 1008.59 1009.51 1010.27 1010.90 1011.67 1012.50 1013.07 1013.57 1014.14 1014.58 1015.18 1015.50 1015.94 1015.95 1016.07 1015.97 1016.11 1016.15 1016.11 1016.25
1001.08 1000.33 999.64 999.29 999.75 999.93 1000.50 1001.64 1003.01 1004.44 1005.22 1004.87 1003.61 1003.56 1002.96 1002.53 1002.52 1002.51 1002.87 1003.50 1003.96 1004.70 1005.85 1007.06 1007.89 1008.42 1009.41 1009.83 1010.22 1011.22 1012.05 1012.54 1013.17 1014.09 1014.84 1015.15 1015.37 1015.32 1015.67 1015.83 1015.77 1015.48 1015.17 1015.07
1001.12 1000.40 999.36 999.01 999.56 1000.14 1000.85 1001.85 1003.15 1004.74 1005.30 1004.74 1003.17 1002.90 1002.17 1001.21 1001.50 1001.85 1001.65 1002.21 1003.01 1004.04 1005.01 1005.83 1006.72 1007.41 1007.78 1009.03 1009.58 1009.78 1010.51 1011.72 1012.59 1013.40 1014.09 1015.32 1015.71 1015.41 1015.43 1015.26 1015.26 1015.28 1015.35 1015.28
1000.65 1000.16 999.06 998.68 999.14 999.84 1000.78 1001.47 1002.42 1004.19 1004.60 1004.95 1003.76 1003.05 1002.17 1001.58 1001.66 1001.64 1001.69 1002.00 1002.75 1003.59 1004.33 1005.22 1005.90 1006.48 1007.38 1007.88 1009.09 1009.36 1010.01 1011.62 1012.35 1012.81 1013.86 1014.93 1015.60 1016.45 1016.06 1015.78 1015.91 1015.87 1015.62 1015.43
999.92 1000.16 999.03 998.78 998.94 999.37 1000.22 1001.09 1002.65 1004.14 1005.23 1005.19 1004.07 1003.57 1003.06 1002.54 1002.22 1002.12 1002.19 1002.52 1002.81 1003.41 1003.96 1005.09 1005.51 1006.42 1006.71 1007.36 1008.42 1009.50 1010.63 1011.03 1011.79 1013.04 1014.25 1014.80 1015.62 1016.23 1016.28 1016.00 1016.03 1015.75 1015.64 1015.44
999.56 1000.22 999.52 998.94 998.93 999.64 1000.16 1001.08 1002.26 1003.43 1004.45 1005.06 1005.27 1004.90 1003.11 1002.92 1002.71 1002.62 1002.66 1003.22 1003.66 1004.44 1004.59 1005.00 1006.06 1008.49 1009.00 1010.28 1012.39 1012.53 1013.44 1014.05 1012.16 1012.84 1015.07 1015.71 1015.83 1015.36 1016.10 1016.61 1017.58 1017.23 1016.34 1015.12
998.76 999.62 1000.01 999.35 998.72 998.66 999.67 1000.64 1001.76 1003.64 1004.27 1004.55 1004.42 1004.44 1003.11 1002.81 1002.77 1002.94 1003.34 1003.67 1004.39 1005.32 1006.08 1007.11 1007.50 1008.84 1011.22 1012.62 1012.31 1011.48 1010.17 1013.32 1014.64 1012.12 1016.52 1019.15 1017.31 1016.64 1017.40 1017.47 1017.45 1016.94 1015.62 1014.73
998.42 999.39 1000.24 999.72 998.99 998.50 999.22 1000.07 1000.93 1001.92 1003.07 1004.18 1004.66 1004.51 1003.34 1003.03 1003.38 1003.62 1004.06 1004.57 1005.40 1006.78 1007.70 1008.28 1009.18 1010.76 1012.24 1011.89 1011.52 1012.34 1012.38 1012.83 1015.29 1015.21 1016.04 1016.69 1016.89 1016.63 1016.90 1017.87 1017.57 1016.12 1014.93 1014.36
997.54 998.99 999.79 999.95 999.47 999.01 999.10 999.46 1000.15 1001.24 1002.71 1003.57 1003.76 1004.06 1003.92 1003.90 1003.93 1004.17 1004.63 1005.21 1006.16 1007.56 1008.97 1009.94 1010.72 1011.29 1011.26 1011.41 1011.12 1012.12 1012.87 1013.29 1014.33 1016.31 1016.81 1016.93 1017.08 1017.10 1017.30 1016.99 1015.73 1014.71 1014.25 1013.99
997.15 998.99 999.42 999.25 998.89 998.83 998.78 998.74 999.39 1000.36 1001.38 1002.40 1002.85 1003.51 1003.99 1004.08 1004.44 1004.70 1005.11 1005.78 1006.93 1008.43 1009.78 1011.13 1011.60 1012.15 1012.32 1012.41 1012.83 1013.11 1013.69 1014.65 1017.02 1016.57 1016.51 1016.37 1016.97 1016.79 1016.02 1015.13 1014.86 1014.73 1014.06 1013.68
996.64 998.47 999.36 999.79 998.81 998.54 998.50 998.28 998.46 999.14 999.99 1000.93 1002.07 1003.41 1003.14 1003.87 1004.39 1005.04 1005.82 1006.57 1008.18 1009.53 1010.40 1011.48 1012.58 1013.24 1013.80 1013.91 1013.92 1013.86 1014.66 1015.42 1015.01 1014.70 1015.13 1015.50 1015.52 1015.22 1015.18 1015.20 1014.81 1014.01 1013.75 1013.45
996.96 998.41 999.76 999.87 999.57 999.01 998.64 997.59 997.85 998.09 998.87 999.93 1001.37 1002.43 1003.09 1004.77 1005.23 1005.54 1006.14 1006.99 1008.70 1010.12 1011.05 1011.58 1012.32 1013.12 1013.71 1014.15 1014.08 1014.38 1014.43 1014.30 1014.17 1014.51 1015.05 1015.06 1014.78 1014.92 1014.89 1014.70 1014.35 1013.96 1013.47 1013.54
997.00 998.59 999.60 1000.25 1000.08 999.37 997.73 997.13 997.06 997.28 997.95 999.21 1000.82 1002.60 1003.83 1004.71 1005.76 1005.98 1006.48 1007.57 1009.06 1010.26 1011.26 1011.79 1012.45 1013.31 1013.78 1014.01 1014.17 1014.44 1014.56 1014.62 1014.84 1014.99 1014.98 1015.07 1015.23 1015.19 1014.76 1014.28 1013.90 1013.61 1013.67 1013.53
996.27 998.10 999.68 1000.11 1000.25 999.40 998.01 997.22 997.38 997.48 998.48 999.29 1001.04 1003.07 1004.32 1005.06 1006.01 1007.74 1007.79 1008.47 1009.54 1010.51 1011.52 1012.10 1012.89 1013.59 1014.06 1014.41 1014.64 1014.83 1015.11 1015.49 1015.70 1015.86 1015.85 1015.56 1015.02 1014.62 1014.24 1013.89 1013.96 1013.98 1013.73 1013.56
996.57 997.35 999.37 1000.12 1000.28 999.33 998.05 997.08 996.68 997.35 999.60 999.96 1000.55 1002.56 1003.82 1005.26 1007.60 1009.32 1009.10 1009.29 1010.34 1010.90 1011.44 1012.24 1013.07 1013.78 1014.35 1014.76 1014.93 1015.14 1015.51 1015.51 1015.63 1015.58 1015.32 1014.89 1014.62 1014.61 1014.68 1014.70 1014.41 1013.92 1013.69 1013.46
997.36 998.27 999.32 999.84 999.69 998.61 997.31 996.90 996.69 997.92 1000.14 1000.72 1000.80 1002.46 1004.34 1005.91 1006.90 1008.81 1009.27 1010.18 1010.54 1010.96 1011.93 1012.63 1013.24 1013.98 1014.54 1014.79 1014.98 1015.42 1015.68 1015.96 1015.94 1015.62 1015.46 1015.42 1015.28 1015.19 1014.81 1014.43 1014.08 1013.58 1013.29 1013.00
997.17 998.14 999.06 999.19 999.39 998.54 997.04 997.20 997.96 998.56 999.87 1000.82 1002.42 1003.82 1005.38 1006.61 1007.96 1008.61 1009.83 1010.53 1010.75 1011.65 1012.53 1013.20 1014.14 1014.99 1015.43 1015.63 1015.90 1016.53 1016.81 1016.88 1016.74 1016.58 1016.32 1015.97 1015.45 1015.07 1014.66 1014.34 1013.86 1013.49 1013.26 1012.93
996.66 996.96 998.21 998.67 998.73 998.20 997.42 997.71 998.38 998.91 1000.20 1001.57 1002.16 1003.69 1005.18 1007.09 1008.27 1009.36 1010.23 1010.78 1011.60 1012.57 1013.39 1013.97 1014.74 1015.48 1015.81 1016.17 1016.49 1016.87 1017.04 1016.96 1016.91 1016.83 1016.67 1016.33 1015.73 1015.28 1014.76 1014.40 1014.06 1013.80 1013.39 1013.22
996.11 996.29 997.80 998.77 999.18 998.57 998.44 998.74 999.10 999.52 1000.43 1001.81 1002.69 1003.56 1005.09 1007.09 1008.57 1009.74 1010.53 1011.62 1012.53 1013.47 1014.18 1014.60 1015.21 1015.94 1016.60 1016.72 1016.89 1017.25 1017.43 1017.36 1017.42 1017.29 1016.86 1016.43 1016.09 1015.50 1014.88 1014.51 1014.16 1013.95 1013.78 1013.60
995.74 996.18 997.65 999.23 999.65 999.64 999.71 999.32 999.73 1000.60 1001.37 1002.48 1003.54 1004.61 1006.09 1007.33 1008.93 1010.07 1011.50 1012.40 1013.37 1014.25 1014.79 1015.23 1016.01 1016.63 1017.00 1017.11 1017.55 1017.73 1017.83 1017.79 1017.70 1017.43 1017.06 1016.74 1016.17 1015.72 1015.27 1014.76 1014.31 1014.15 1014.14 1014.07
995.80 995.85 997.43 999.84 999.50 999.81 1000.55 1000.35 1000.48 1001.34 1002.26 1003.11 1004.10 1005.96 1007.25 1007.75 1009.38 1010.81 1012.21 1013.18 1014.11 1014.86 1015.43 1016.04 1016.50 1016.88 1017.14 1017.54 1017.89 1018.05 1018.02 1017.91 1017.86 1017.55 1017.21 1016.93 1016.52 1016.00 1015.48 1015.07 1014.55 1014.45 1014.58 1014.38
Thickness
5851 5825 5813 5835 5850 5860 5861 5866 5858 5867 5884 5857 5841 5834 5838 5847 5846 5836 5830 5827 5823 5819 5822 5821 5818 5815 5810 5805 5800 5797 5793 5791 5789 5786 5785 5785 5783 5781 5785 5780 5769 5766 5755 5774
5830 5813 5852 5864 5865 5866 5872 5862 5859 5872 5887 5862 5845 5838 5846 5848 5847 5851 5840 5831 5832 5828 5826 5824 5822 5820 5816 5811 5808 5804 5801 5798 5795 5792 5792 5791 5790 5784 5780 5781 5770 5769 5761 5771
5817 5844 5871 5864 5858 5867 5866 5862 5864 5858 5879 5879 5852 5827 5836 5851 5855 5855 5855 5850 5843 5839 5830 5829 5826 5824 5821 5816 5812 5810 5807 5804 5801 5799 5797 5795 5794 5789 5780 5781 5770 5774 5778 5788
5833 5864 5855 5863 5861 5871 5847 5889 5887 5873 5848 5818 5862 5782 5824 5845 5845 5851 5852 5854 5851 5847 5843 5838 5833 5827 5826 5822 5820 5816 5812 5806 5802 5798 5794 5791 5788 5782 5784 5782 5780 5774 5781 5782
5834 5850 5848 5850 5866 5880 5859 5887 5879 5881 5854 5850 5847 5807 5835 5845 5832 5845 5852 5858 5860 5860 5855 5845 5843 5839 5837 5832 5826 5821 5815 5808 5804 5799 5797 5795 5792 5793 5790 5783 5780 5776 5763 5764
5851 5882 5873 5872 5884 5883 5888 5876 5870 5861 5841 5790 5830 5823 5818 5834 5849 5854 5858 5861 5864 5863 5861 5858 5854 5848 5842 5841 5834 5826 5819 5813 5808 5805 5797 5793 5787 5786 5784 5786 5781 5781 5778 5773
5844 5854 5875 5886 5860 5876 5870 5837 5789 5784 5782 5780 5842 5832 5832 5866 5872 5874 5869 5868 5867 5865 5861 5860 5855 5851 5845 5843 5841 5833 5825 5819 5816 5804 5795 5791 5788 5787 5782 5779 5778 5777 5782 5781
5807 5804 5857 5882 5863 5845 5846 5836 5786 5767 5782 5797 5852 5814 5839 5883 5888 5887 5887 5880 5877 5868 5863 5859 5863 5861 5858 5849 5843 5844 5835 5822 5818 5809 5802 5788 5782 5784 5781 5778 5777 5776 5774 5775
5809 5816 5874 5883 5884 5870 5846 5826 5854 5816 5827 5807 5837 5849 5870 5880 5878 5882 5881 5883 5874 5870 5867 5862 5861 5867 5862 5857 5845 5842 5839 5821 5816 5812 5801 5788 5782 5773 5771 5770 5768 5767 5766 5768
5839 5806 5859 5874 5881 5878 5854 5868 5817 5806 5785 5787 5819 5823 5815 5849 5859 5870 5877 5881 5882 5872 5868 5863 5863 5860 5862 5858 5847 5839 5833 5826 5813 5804 5788 5782 5776 5771 5762 5768 5757 5757 5763 5765
5850 5823 5833 5866 5845 5838 5841 5832 5838 5829 5816 5790 5780 5789 5857 5851 5857 5862 5873 5877 5871 5866 5866 5864 5860 5835 5826 5821 5803 5804 5796 5789 5799 5789 5761 5764 5764 5766 5747 5749 5739 5738 5748 5761
5854 5830 5802 5826 5869 5881 5861 5845 5836 5791 5798 5813 5801 5791 5864 5864 5867 5866 5866 5871 5870 5856 5853 5846 5844 5829 5813 5801 5803 5809 5821 5786 5747 5757 5743 5727 5744 5752 5733 5739 5737 5733 5741 5751
5848 5817 5790 5808 5843 5864 5848 5852 5848 5841 5826 5804 5789 5791 5857 5859 5859 5861 5854 5862 5862 5840 5837 5836 5828 5810 5795 5802 5807 5807 5797 5778 5749 5735 5743 5742 5740 5748 5744 5729 5723 5726 5738 5743
5857 5823 5804 5789 5811 5843 5833 5847 5853 5834 5798 5806 5808 5815 5829 5837 5846 5854 5853 5852 5851 5834 5823 5817 5813 5811 5811 5810 5810 5797 5783 5767 5754 5741 5738 5732 5734 5735 5730 5721 5731 5741 5740 5735
5852 5803 5820 5833 5844 5848 5849 5848 5847 5829 5825 5808 5827 5822 5824 5827 5833 5846 5851 5847 5839 5828 5815 5800 5799 5796 5793 5790 5791 5783 5772 5759 5732 5733 5737 5739 5726 5722 5726 5733 5731 5723 5724 5723
5851 5804 5825 5813 5842 5845 5836 5850 5849 5849 5846 5846 5839 5819 5843 5836 5839 5837 5840 5834 5819 5811 5808 5799 5784 5778 5773 5769 5768 5770 5760 5743 5748 5754 5746 5737 5732 5730 5724 5718 5719 5722 5719 5717
5829 5807 5798 5783 5820 5824 5800 5833 5846 5851 5851 5848 5818 5828 5837 5822 5825 5828 5830 5826 5814 5804 5800 5795 5789 5778 5767 5758 5761 5753 5749 5750 5749 5742 5733 5729 5729 5724 5720 5717 5715 5714 5714 5707
5817 5806 5794 5778 5804 5760 5824 5858 5861 5855 5855 5855 5842 5830 5824 5820 5824 5829 5830 5821 5811 5802 5793 5790 5782 5772 5762 5756 5751 5746 5742 5739 5734 5729 5726 5722 5715 5710 5711 5712 5710 5705 5698 5693
5832 5807 5780 5763 5762 5795 5823 5844 5843 5844 5838 5846 5830 5822 5820 5823 5819 5802 5815 5812 5802 5795 5787 5782 5774 5764 5755 5750 5747 5741 5735 5727 5721 5716 5712 5711 5712 5710 5708 5704 5696 5688 5685 5679
5826 5817 5789 5771 5753 5751 5809 5848 5868 5862 5792 5835 5836 5825 5821 5816 5778 5777 5798 5800 5790 5787 5784 5775 5766 5757 5748 5743 5739 5733 5725 5721 5716 5712 5710 5708 5704 5698 5689 5682 5678 5675 5670 5666
5785 5783 5768 5764 5763 5785 5832 5851 5865 5795 5788 5828 5837 5826 5813 5797 5799 5791 5793 5785 5784 5780 5771 5764 5756 5747 5738 5734 5729 5720 5713 5706 5702 5699 5695 5687 5681 5676 5674 5670 5666 5665 5661 5658
5777 5761 5756 5767 5755 5754 5845 5840 5813 5818 5828 5824 5816 5809 5799 5797 5791 5789 5779 5773 5772 5762 5753 5745 5735 5725 5718 5713 5707 5696 5689 5684 5680 5676 5672 5670 5668 5665 5661 5657 5655 5653 5650 5647
5769 5782 5771 5779 5780 5811 5836 5828 5832 5831 5821 5812 5812 5808 5803 5788 5782 5775 5768 5764 5755 5743 5732 5728 5719 5711 5704 5697 5690 5681 5676 5671 5667 5661 5656 5654 5652 5649 5648 5645 5642 5640 5639 5634
5797 5809 5780 5781 5795 5805 5817 5824 5822 5823 5818 5812 5808 5804 5797 5781 5772 5762 5757 5746 5735 5724 5715 5711 5704 5696 5686 5683 5678 5668 5661 5656 5651 5645 5642 5640 5637 5637 5635 5633 5631 5628 5624 5620
5796 5800 5785 5776 5780 5791 5796 5806 5806 5804 5806 5801 5797 5790 5780 5772 5759 5749 5735 5727 5716 5708 5702 5695 5685 5677 5671 5668 5659 5652 5646 5641 5636 5633 5632 5628 5627 5625 5624 5621 5618 5614 5609 5605
5783 5780 5770 5746 5773 5775 5777 5791 5798 5793 5788 5787 5782 5768 5762 5759 5744 5732 5719 5710 5701 5692 5687 5679 5670 5664 5659 5651 5643 5638 5633 5629 5626 5623 5620 5617 5616 5615 5614 5610 5606 5599 5593 5589